Milton, FL

10:17 AM CDT on July 26, 2017 (GMT -0500)
Whiting Field Naval Air Station (South)

Weather History for KNDZ - November, 2012

Change the Weather History Date:

Monday, November 19, 2012

  Actual Average (KNSE) Record (KNSE)
Temperature  
Mean Temperature 56 °F -  
Max Temperature 72 °F 66 °F 79 °F (1998)
Min Temperature 41 °F 48 °F 19 °F (2014)
Degree Days  
Heating Degree Days 8    
Growing Degree Days 6 (Base 50)    
Moisture  
Dew Point 44 °F    
Average Humidity 67    
Maximum Humidity 93    
Minimum Humidity 40    
Precipitation  
Precipitation 0.00 in - - ()
Sea Level Pressure  
Sea Level Pressure 30.19 in    
Wind  
Wind Speed 5 mph (NNE)    
Max Wind Speed 10 mph    
Max Gust Speed -    
Visibility 10 miles    
Events      
Averages and records for this station are not official NWS values.
T = Trace of Precipitation, MM = Missing Value Source: NWS Daily Summary

Daily Weather History Graph

Daily Weather History Graph

Search for Another Location

Airport or City:

Trip Planner

Search our weather history database for the weather conditions in past years. The results will help you decide how hot, cold, wet, or windy it might be!

Date:

Astronomy

Nov. 19, 2012 Rise Set
Actual Time 6:18 AM CST 4:48 PM CST
Civil Twilight 5:52 AM CST 5:14 PM CST
Nautical Twilight 5:23 AM CST 5:43 PM CST
Astronomical Twilight 4:54 AM CST 6:12 PM CST
Moon 11:29 AM CST (11/19) 11:04 PM CST (11/19)
Length of Visible Light 11h 21m
Length of Day
10h 30m
Waxing Crescent, 41% of the Moon is Illuminated
Nov 19
Waxing Crescent
Nov 20
First Quarter
Nov 28
Full
Dec 6
Last Quarter
Dec 13
New

Hourly Weather History & Observations

Time (CST) Temp. Windchill Dew Point Humidity Pressure Visibility Wind Dir Wind Speed Gust Speed Precip Events Conditions
12:56 AM 50.0 °F - 41.0 °F 71% 30.23 in 10.0 mi North 5.8 mph - N/A   Clear
1:56 AM 50.0 °F - 41.0 °F 71% 30.23 in 10.0 mi NNE 6.9 mph - N/A   Partly Cloudy
2:56 AM 50.0 °F - 41.0 °F 71% 30.23 in 10.0 mi NNE 4.6 mph - N/A   Clear
3:56 AM 48.9 °F - 42.1 °F 77% 30.22 in 10.0 mi NE 6.9 mph - N/A   Partly Cloudy
4:56 AM 44.1 °F 41.5 °F 39.9 °F 85% 30.23 in 10.0 mi North 4.6 mph - N/A   Clear
5:56 AM 41.0 °F - 39.0 °F 93% 30.23 in 10.0 mi Calm Calm - N/A   Clear
6:56 AM 41.0 °F 39.0 °F 37.9 °F 89% 30.24 in 10.0 mi NW 3.5 mph - N/A   Clear
7:56 AM 53.1 °F - 45.0 °F 74% 30.24 in 10.0 mi ENE 5.8 mph - N/A   Clear
8:56 AM 59.0 °F - 46.0 °F 62% 30.24 in 10.0 mi ENE 5.8 mph - N/A   Clear
9:56 AM 63.0 °F - 48.0 °F 58% 30.23 in 10.0 mi NNE 3.5 mph - N/A   Clear
10:56 AM 68.0 °F - 48.0 °F 49% 30.22 in 10.0 mi Variable 3.5 mph - N/A   Clear
11:56 AM 70.0 °F - 46.9 °F 44% 30.20 in 10.0 mi NE 6.9 mph - N/A   Clear
12:56 PM 72.0 °F - 46.9 °F 41% 30.17 in 10.0 mi North 9.2 mph - N/A   Clear
1:56 PM 72.0 °F - 46.0 °F 40% 30.15 in 10.0 mi Variable 6.9 mph - N/A   Clear
2:56 PM 71.1 °F - 46.9 °F 42% 30.14 in 10.0 mi NNE 5.8 mph - N/A   Clear
3:56 PM 68.0 °F - 48.0 °F 49% 30.13 in 10.0 mi NNE 10.4 mph - N/A   Clear
4:56 PM 63.0 °F - 48.0 °F 58% 30.14 in 10.0 mi NNE 5.8 mph - N/A   Clear
5:56 PM 61.0 °F - 46.0 °F 58% 30.14 in 10.0 mi NNE 3.5 mph - N/A   Clear
6:56 PM 57.0 °F - 46.9 °F 69% 30.16 in 10.0 mi North 4.6 mph - N/A   Clear
7:56 PM 54.0 °F - 45.0 °F 72% 30.16 in 10.0 mi North 5.8 mph - N/A   Clear
8:56 PM 54.0 °F - 45.0 °F 72% 30.15 in 10.0 mi North 5.8 mph - N/A   Clear
9:56 PM 48.9 °F - 44.1 °F 83% 30.15 in 10.0 mi North 4.6 mph - N/A   Clear
10:56 PM 46.9 °F - 44.1 °F 90% 30.15 in 10.0 mi Calm Calm - N/A   Clear
11:56 PM 46.0 °F - 43.0 °F 89% 30.14 in 10.0 mi Calm Calm - N/A   Clear